User: anonymous   Login
Location: Newark
(25.5428°S, 54.5819°W)
Time: 07:35:03
(UTC+00:00)
Language:

Envisat - Orbit

View from above orbital plane
View from above orbital plane
View from above satellite
View from above satellite

Ground track
Ground track

The orbit data is extracted from the following two-line orbital elements,

1 27386U 02009A   19230.97132622 -.00000005 +00000-0 +11951-4 0  9991
2 27386 098.1475 248.8579 0001426 089.3059 327.9500 14.37955038914939
Epoch (UTC): 18 August 2019 23:18:42
Eccentricity: 0.0001426
inclination: 98.1475°
perigee height: 764 km
apogee height: 766 km
right ascension of ascending node: 248.8579°
argument of perigee: 89.3059°
revolutions per day: 14.37955038
mean anomaly at epoch: 327.9500°
orbit number at epoch: 91493

The dashed part of the orbit path shows where the satellite is in the earth's shadow,  

DLR